Temp
69 63 59 64 67 67 65 63 62 69 78 75 72 74 77 82 81 80 83 87 89 90 96 98 99 98 97 94 91 90 89 88 90 91 90 91 92 92 92 92 91 90 87 83
63 58 66 67 66 63 62 59 60 66 72 72 69 69 76 80 81 81 81 84 87 89 92 94 95 95 93 92 90 89 88 87 88 91 88 92 94 95 93 92 89 87 86 84
57 62 67 65 62 59 60 57 57 58 66 69 67 63 68 78 81 83 83 84 87 87 88 90 92 92 93 92 90 88 88 87 88 87 89 89 90 90 90 89 86 85 84 83
60 66 62 61 59 61 54 63 62 59 57 51 66 52 64 71 74 78 81 83 83 85 88 88 88 89 90 92 93 91 89 88 88 87 86 85 85 85 88 87 86 81 81 79
56 59 60 58 59 63 57 64 61 60 57 56 57 54 61 71 70 74 78 82 84 85 85 86 89 91 93 94 92 91 90 88 87 85 85 88 84 88 88 87 79 75 75 76
61 66 62 61 63 63 65 60 60 59 56 46 54 55 57 64 69 75 81 84 85 87 88 89 90 92 92 94 94 92 88 86 86 86 84 84 83 86 85 82 73 72 73 75
56 57 58 63 55 62 60 53 43 41 42 42 56 52 56 68 74 77 79 83 86 88 89 89 90 90 90 91 92 91 89 85 86 85 85 84 85 85 82 75 74 74 74 76
42 40 53 58 56 53 53 53 44 33 36 42 55 46 56 71 77 81 81 82 84 86 88 88 89 90 92 91 90 89 88 85 85 84 84 84 85 87 85 81 83 81 79 79
42 42 58 60 61 60 53 48 55 44 46 39 45 51 63 71 74 77 78 81 82 84 86 87 89 90 91 92 90 89 87 86 85 85 84 83 83 85 85 83 82 79 80 82
51 41 54 58 61 62 56 57 38 46 35 33 45 49 52 63 67 75 77 78 79 82 83 85 87 89 90 91 87 86 87 85 85 85 84 82 83 84 82 81 81 81 80 83
56 49 48 56 53 50 50 45 52 44 43 38 38 44 64 66 71 72 77 77 79 81 79 81 85 87 85 86 87 84 85 84 80 80 80 77 79 80 80 82 82 81 81 81
56 48 41 49 60 61 58 50 49 38 34 44 45 46 64 63 78 76 75 76 81 82 76 74 74 76 84 87 87 85 84 83 83 78 78 77 78 82 81 81 81 82 81 83
47 47 37 45 53 51 46 51 52 50 43 37 33 38 57 71 72 73 72 74 78 81 76 73 70 78 86 86 86 86 86 86 85 80 79 81 81 81 80 81 81 82 82 81
49 44 41 37 45 37 35 46 53 49 40 42 43 44 40 52 68 73 73 74 77 80 76 70 68 73 81 84 86 85 85 86 86 85 83 81 80 80 81 81 81 81 82 81
42 36 44 48 52 51 51 53 54 51 51 45 49 49 49 51 56 67 73 74 76 79 79 71 65 70 75 78 79 85 86 86 85 84 82 80 81 81 81 81 81 81 81 81
46 37 44 43 51 53 50 54 55 55 55 55 54 53 63 66 69 70 71 73 73 77 80 74 68 71 72 76 82 84 85 85 85 82 81 81 81 81 80 79 75 80 79 75
41 43 40 37 49 48 43 53 55 56 59 58 52 60 67 66 67 69 70 72 74 76 79 73 70 69 71 77 79 83 84 85 83 83 83 83 78 76 77 78 78 79 73 74
37 41 42 36 40 30 52 61 60 56 58 61 62 64 67 68 71 72 75 74 75 77 79 74 71 69 71 79 84 84 85 84 84 84 84 84 80 76 76 75 78 74 71 77
41 38 35 33 33 42 46 47 46 45 49 58 57 62 67 70 71 69 75 77 77 78 81 77 74 76 78 79 84 84 84 85 85 84 84 82 78 76 75 74 74 71 75 75
42 39 35 36 29 26 40 43 50 47 39 54 56 62 63 67 59 66 77 78 76 71 69 74 77 74 76 81 84 83 84 85 84 83 79 80 84 81 75 78 71 72 76 76
35 34 31 35 31 38 45 42 42 33 40 47 54 56 59 58 63 71 76 75 73 68 65 76 78 75 78 84 83 82 83 83 81 81 79 81 83 81 79 77 72 72 75 74
35 33 34 36 32 30 45 41 34 46 49 47 51 56 59 61 65 67 73 73 65 64 76 72 73 78 83 84 83 82 81 81 79 80 80 83 81 83 82 77 71 72 72 74
35 36 33 34 35 48 47 42 44 44 40 44 47 54 59 60 63 66 72 67 65 70 72 76 79 83 83 84 84 81 81 79 78 77 82 81 80 77 78 74 76 72 73 71
49 41 34 36 46 44 45 45 45 45 46 53 57 53 55 52 63 67 69 64 64 71 69 77 84 82 81 84 84 84 81 83 79 82 81 81 77 73 73 78 75 73 71 70
50 45 44 40 44 45 46 48 46 46 48 51 54 56 59 59 64 66 64 66 65 67 71 81 83 82 82 84 84 85 85 82 77 81 81 80 77 74 74 68 67 71 65 62
53 49 42 36 48 43 44 50 49 46 47 49 50 52 55 59 59 65 61 63 65 67 74 84 83 83 83 84 85 86 85 83 79 81 82 81 82 77 74 76 71 43 45 42
MSLP
1006.30 1005.87 1004.68 1003.89 1003.34 1002.74 1002.25 1001.30 999.52 998.16 997.34 997.17 996.83 995.81 995.20 995.70 996.17 996.30 995.90 995.32 995.27 995.22 995.20 995.66 996.14 996.80 997.79 998.60 999.27 999.58 999.95 1000.14 1000.24 1000.20 1000.46 1000.48 1000.42 1000.50 1001.03 1001.51 1001.96 1002.44 1003.15 1004.15
1006.09 1004.79 1004.55 1004.51 1004.23 1003.62 1003.04 1001.95 1000.44 999.88 999.06 998.36 997.04 996.22 995.07 995.05 994.90 995.23 995.58 995.23 994.71 994.64 994.80 995.20 995.64 996.46 997.21 997.80 998.39 998.90 999.39 999.66 999.51 999.51 999.99 999.74 999.40 999.58 1000.21 1001.04 1001.66 1002.27 1002.95 1003.70
1005.77 1005.05 1004.88 1004.40 1004.07 1003.79 1003.14 1002.48 1001.67 1000.84 1000.20 999.36 998.20 996.69 995.86 994.91 994.72 994.70 994.81 994.96 994.82 994.59 994.65 995.07 995.46 995.95 996.43 996.81 997.44 998.05 998.51 998.62 998.55 999.02 999.24 999.53 999.90 999.91 999.92 1000.55 1001.47 1002.30 1002.82 1003.40
1005.87 1005.36 1004.91 1004.41 1003.74 1003.65 1002.64 1002.76 1002.15 1001.56 1001.19 999.60 998.92 996.04 995.23 994.80 994.32 994.33 994.08 994.01 994.13 994.27 994.45 994.84 995.31 995.63 995.88 996.06 996.57 996.98 997.35 997.54 997.83 998.39 998.65 998.75 999.33 999.46 999.56 1000.30 1001.15 1002.37 1002.74 1003.34
1005.58 1005.12 1004.53 1003.89 1003.39 1003.30 1002.69 1002.77 1002.40 1001.86 1001.07 1000.32 999.12 997.08 994.55 994.53 993.40 993.27 993.20 993.31 993.41 993.61 994.04 994.14 994.29 994.30 994.53 994.82 995.16 995.72 996.28 996.83 997.32 997.73 998.23 998.31 998.95 999.17 999.76 1000.25 1001.31 1002.38 1003.00 1003.51
1005.26 1005.19 1005.03 1004.15 1003.72 1003.35 1003.17 1002.89 1002.57 1001.93 1001.15 999.43 998.62 997.30 994.80 994.09 993.47 992.59 992.07 991.89 991.94 992.27 992.54 992.87 993.25 993.42 993.33 993.62 993.96 994.57 995.38 996.11 996.84 997.33 997.79 998.15 998.44 998.52 999.27 1000.25 1001.81 1002.40 1003.01 1003.49
1005.66 1005.07 1006.05 1004.72 1003.72 1002.84 1002.97 1002.99 1002.26 1001.36 1000.44 998.78 998.68 997.06 995.46 994.10 993.57 992.87 991.82 991.49 991.24 991.27 991.50 991.59 992.05 992.30 992.40 992.84 993.33 993.93 994.72 995.73 996.31 996.69 997.15 997.84 998.16 998.47 999.21 1000.78 1001.54 1001.91 1002.44 1002.81
1006.48 1005.83 1005.56 1005.23 1004.58 1003.21 1003.07 1002.75 1002.41 1001.67 1000.61 999.34 998.26 996.49 995.26 994.49 992.72 991.86 991.90 991.66 991.56 991.10 991.27 991.60 991.51 991.59 991.61 992.08 992.85 993.55 994.09 994.93 995.59 996.32 996.93 997.56 998.00 998.52 999.10 999.94 1000.12 1001.03 1001.62 1002.25
1007.16 1006.25 1005.75 1004.97 1004.55 1004.28 1003.46 1002.82 1003.62 1003.84 1002.76 1000.95 999.44 998.01 995.45 994.18 992.69 992.23 992.03 991.27 991.14 991.14 991.15 991.24 991.12 991.17 991.36 991.55 992.35 993.10 993.78 994.53 995.43 996.07 996.82 997.40 998.04 998.22 998.64 999.05 999.93 1000.76 1001.22 1001.97
1007.32 1006.35 1005.83 1004.63 1004.45 1003.44 1003.33 1004.30 1004.56 1003.51 1002.49 1000.63 998.66 996.18 994.05 992.85 992.51 991.76 991.28 991.25 991.67 991.87 991.60 991.42 991.17 991.05 991.22 991.57 992.61 993.44 993.69 994.47 995.34 996.07 996.73 997.41 997.75 998.25 998.98 999.62 999.86 1000.58 1001.48 1001.84
1007.32 1006.90 1005.68 1004.58 1003.34 1003.45 1003.85 1004.39 1003.39 1004.57 1004.07 1001.05 998.28 996.22 992.99 991.70 991.66 991.72 991.11 991.86 992.06 991.64 992.41 992.09 991.71 991.54 992.16 992.73 992.92 993.57 994.03 994.68 995.64 996.41 996.86 997.62 998.16 998.92 999.46 999.72 1000.25 1001.04 1001.58 1002.08
1007.92 1007.40 1006.19 1004.29 1002.68 1002.96 1002.86 1003.64 1004.04 1003.68 1003.60 1002.14 999.80 996.21 994.87 993.46 988.35 991.52 991.96 992.71 992.24 991.70 992.83 993.32 993.35 993.23 992.55 992.40 992.98 993.63 994.19 995.14 995.84 996.82 997.46 998.19 998.64 999.11 999.60 1000.10 1000.73 1001.33 1001.69 1002.13
1010.34 1007.95 1006.48 1003.90 1001.97 1003.57 1003.98 1003.76 1003.63 1003.60 1003.81 1002.13 1001.01 999.06 996.61 993.01 992.30 992.83 993.35 993.89 992.75 991.89 992.66 993.40 993.76 993.25 992.15 992.45 993.10 993.76 994.26 994.99 996.03 997.17 997.90 998.27 998.86 999.39 999.88 1000.40 1000.95 1001.33 1001.89 1002.37
1011.08 1009.44 1007.91 1005.55 1003.17 1004.78 1005.15 1003.50 1002.39 1002.36 1001.51 1000.34 1000.13 999.56 999.36 997.62 994.04 993.48 993.83 994.37 993.39 992.17 992.73 993.83 994.24 993.75 992.61 992.65 993.21 993.87 994.41 995.18 996.03 996.98 997.77 998.55 999.16 999.73 1000.16 1000.64 1001.10 1001.63 1002.09 1002.48
1011.23 1009.45 1007.94 1006.00 1004.32 1003.29 1002.43 1001.47 1001.04 1000.31 999.18 998.71 998.63 998.66 998.57 998.62 997.06 994.36 994.11 994.24 993.36 992.52 992.59 994.19 994.98 994.61 993.90 993.66 993.95 994.15 994.86 995.66 996.54 997.21 998.05 998.87 999.48 1000.00 1000.40 1000.84 1001.32 1001.76 1002.11 1002.32
1010.38 1009.21 1007.91 1005.81 1004.18 1002.87 1001.53 1000.72 1000.27 999.71 997.65 997.96 997.73 997.31 997.06 996.43 995.88 994.87 994.49 994.23 993.94 993.06 992.88 994.20 995.03 995.10 994.70 994.43 994.15 994.62 995.23 996.06 996.88 997.63 998.48 999.20 999.69 1000.11 1000.59 1001.16 1001.71 1001.99 1002.27 1002.87
1010.07 1008.93 1007.87 1005.64 1003.89 1002.44 1000.99 999.67 999.02 998.57 997.28 996.46 996.01 995.87 995.52 995.19 994.76 994.20 994.23 994.26 993.84 993.49 993.18 994.14 994.88 995.42 995.19 994.81 994.59 994.91 995.70 996.51 997.31 997.89 998.51 998.96 999.76 1000.43 1000.94 1001.43 1001.81 1002.10 1002.67 1003.24
1010.07 1009.36 1008.34 1006.42 1005.03 1002.90 1000.39 999.53 999.10 999.08 998.63 996.47 995.65 995.39 995.25 994.88 994.55 994.17 993.90 993.37 993.35 993.25 993.14 993.76 994.67 995.31 995.33 994.86 994.67 995.31 996.11 996.67 997.16 997.72 998.18 998.87 999.89 1000.74 1001.34 1001.65 1001.83 1002.47 1003.23 1003.39
1009.91 1009.78 1008.65 1006.73 1005.18 1003.47 1002.34 1002.73 1002.74 1002.41 1000.76 999.65 997.76 996.78 995.45 994.92 994.25 993.82 993.48 993.37 993.24 993.21 992.96 993.47 994.38 994.84 995.11 994.93 994.79 995.60 996.14 996.50 997.00 997.46 998.09 999.16 1000.11 1000.90 1001.54 1001.76 1002.19 1003.01 1003.29 1003.74
1009.41 1009.76 1009.32 1007.36 1006.02 1004.83 1004.37 1005.25 1005.03 1004.93 1002.47 1000.86 999.73 997.41 996.49 995.36 994.35 993.35 992.50 992.54 993.12 993.66 993.90 993.16 993.92 994.74 994.97 994.73 995.00 995.70 996.12 996.43 996.81 997.67 998.85 999.60 999.57 1000.58 1001.58 1001.66 1002.65 1003.05 1003.35 1003.72
1008.79 1009.14 1008.75 1007.62 1006.83 1005.52 1005.68 1006.50 1006.65 1005.30 1003.78 1002.87 1001.52 999.90 998.42 997.02 995.86 994.11 993.63 993.58 994.03 994.21 993.75 993.11 993.52 994.33 994.62 994.37 995.32 995.75 996.14 996.49 997.67 998.55 999.45 999.62 999.87 1000.64 1001.50 1002.12 1002.92 1003.27 1003.46 1003.57
1008.67 1008.85 1008.11 1007.55 1006.51 1005.84 1006.44 1006.80 1007.00 1004.89 1003.58 1003.45 1002.32 1000.66 999.12 998.14 996.90 995.80 994.43 994.01 994.31 994.26 993.19 993.21 993.85 993.87 993.87 994.64 995.51 995.83 996.40 997.37 998.22 998.97 999.39 999.45 1000.31 1000.49 1001.42 1002.18 1002.93 1003.35 1003.72 1003.98
1007.94 1008.90 1009.22 1008.86 1007.37 1006.11 1006.29 1006.38 1006.30 1005.65 1004.61 1002.79 1002.18 1001.13 999.79 998.67 997.35 996.07 994.53 994.65 994.18 993.78 993.10 992.91 992.79 993.26 994.08 994.89 995.53 996.17 996.93 997.83 998.64 999.03 999.00 999.94 1000.53 1001.10 1001.81 1002.57 1002.98 1003.71 1003.99 1004.34
1006.70 1008.16 1008.35 1007.92 1006.32 1006.17 1005.91 1006.08 1005.75 1005.00 1003.49 1001.90 1001.03 1001.09 1000.21 999.25 997.41 995.83 994.85 994.71 994.05 993.17 992.46 992.35 992.35 993.24 994.19 995.06 995.74 996.23 997.27 997.84 998.50 998.56 999.50 1000.13 1000.78 1001.65 1002.21 1002.66 1003.56 1003.86 1004.17 1004.53
1005.77 1006.78 1006.33 1006.38 1006.22 1005.83 1005.80 1005.52 1005.28 1004.57 1003.62 1002.57 1001.64 1000.85 999.85 998.81 997.13 996.19 995.36 994.27 993.42 992.77 991.79 991.58 992.38 993.41 994.37 995.16 995.78 996.21 997.00 997.98 998.48 999.02 999.74 1000.19 1000.90 1001.59 1002.43 1003.85 1004.55 1004.55 1005.11 1005.37
1004.96 1004.87 1005.47 1005.60 1005.40 1005.79 1005.52 1004.90 1004.98 1004.40 1003.69 1003.01 1002.30 1001.40 1000.42 999.36 998.23 996.81 995.96 994.64 992.85 991.77 991.90 991.56 992.67 993.68 994.47 995.19 995.72 996.14 997.00 998.08 998.65 999.03 999.58 999.82 1000.48 1001.40 1002.11 1003.17 1004.72 1005.52 1005.76 1005.69
Wind_Speed
9 14 14 17 16 20 22 27 32 30 23 25 30 30 34 30 28 27 26 24 29 28 25 23 21 13 13 11 12 11 13 13 9 9 9 10 10 10 10 10 11 11 12 13
14 16 16 17 20 20 22 25 28 27 29 24 22 26 32 26 28 27 26 28 27 22 21 20 18 15 14 14 13 12 15 14 10 10 8 9 8 10 10 9 9 11 14 15
16 17 19 19 16 18 20 22 24 27 24 26 26 29 33 29 29 24 25 27 28 27 26 23 22 18 16 15 13 15 15 14 12 13 9 6 7 7 8 9 9 11 14 13
17 16 16 16 20 20 22 19 22 21 22 22 27 24 26 25 27 27 28 26 23 22 22 21 22 22 20 18 16 15 14 13 13 12 12 11 9 9 9 8 9 10 10 9
19 21 22 23 22 18 22 21 22 23 23 25 29 24 22 24 25 26 26 27 28 25 22 23 24 23 21 18 15 15 14 13 11 12 12 11 11 10 8 9 10 8 7 9
21 10 23 20 23 21 22 18 24 21 20 22 27 27 24 23 26 22 18 20 17 19 22 22 23 23 18 16 16 13 14 13 12 13 14 12 13 11 10 10 9 7 7 9
19 20 9 17 16 22 18 18 14 17 18 19 22 25 22 23 28 27 26 24 23 14 16 17 17 17 16 17 16 13 12 12 14 14 13 14 12 10 12 14 11 12 10 9
11 16 8 8 16 19 16 18 14 21 16 17 22 25 20 25 28 13 18 16 17 13 10 14 15 13 13 13 13 14 14 13 13 13 14 13 13 10 11 14 12 11 10 10
12 11 19 15 10 13 16 18 16 21 25 19 18 28 29 29 23 18 18 12 10 9 10 10 12 12 11 13 13 13 11 13 13 14 13 13 13 12 12 11 12 9 9 11
14 19 16 14 9 13 15 15 4 15 23 24 17 23 17 31 28 17 17 6 3 9 7 11 7 9 9 6 7 11 12 13 14 15 13 12 10 12 14 10 9 12 12 12
18 15 18 17 14 16 9 12 16 10 12 14 19 10 13 25 31 21 7 5 6 4 5 6 4 5 6 11 12 12 14 15 12 11 11 12 12 13 12 10 12 12 11 11
22 11 14 21 16 18 2 11 10 9 8 20 17 19 21 26 27 27 13 6 9 9 5 3 3 5 14 13 14 15 16 17 15 11 12 12 12 14 13 13 13 12 11 10
10 8 10 15 17 16 9 12 9 12 8 19 9 7 17 16 17 11 10 11 15 10 8 7 3 9 14 15 15 16 16 16 18 14 13 15 15 14 13 13 12 11 9 8
12 14 18 17 22 11 7 20 14 18 11 15 16 16 20 28 4 10 9 10 14 13 11 9 2 3 8 13 16 16 16 15 16 16 16 15 14 13 12 12 10 10 10 10
6 13 20 21 24 25 20 19 14 19 22 20 18 17 12 18 22 25 10 12 15 10 8 11 1 2 4 5 9 15 16 16 15 16 15 14 13 12 11 11 10 10 9 9
8 9 16 20 22 23 23 21 18 21 27 23 22 22 15 17 19 18 15 14 12 12 8 11 8 5 7 8 14 16 16 16 15 14 14 13 13 12 11 11 7 10 8 6
7 8 10 17 19 14 17 19 19 18 24 22 21 19 17 15 16 16 14 14 11 14 10 11 12 7 6 9 11 16 16 15 14 14 14 13 11 9 9 10 10 10 8 5
5 10 11 13 12 11 11 8 6 10 17 23 21 18 18 17 17 17 17 16 12 10 11 12 13 9 9 7 16 16 15 15 15 14 13 14 13 10 7 8 11 9 6 6
9 5 6 6 6 13 16 9 8 14 16 21 25 25 19 17 14 15 15 14 14 11 14 11 15 16 14 13 17 16 15 14 14 13 12 13 10 10 11 6 9 7 8 7
6 10 7 8 6 5 4 2 2 7 17 11 12 13 19 15 9 11 7 1 11 13 14 11 16 13 16 16 17 15 15 14 13 12 12 10 11 13 8 12 9 5 8 7
3 3 10 13 9 6 9 10 8 8 5 14 16 17 9 12 12 19 12 11 11 11 16 17 20 14 18 17 16 15 14 13 14 13 11 9 11 13 12 12 5 4 5 5
3 5 3 4 7 1 4 7 5 12 24 21 20 18 15 14 15 20 15 11 5 9 10 15 14 19 17 18 15 15 13 15 12 11 12 11 10 8 10 9 6 5 6 7
2 3 3 3 5 12 13 10 13 15 22 28 19 17 14 14 15 21 12 9 6 13 14 13 13 18 17 17 14 15 16 12 11 11 12 12 10 8 7 7 6 5 5 5
2 5 4 4 5 12 11 9 8 15 16 13 2 8 12 15 16 13 10 8 6 7 14 13 19 18 17 16 15 14 14 15 11 12 12 10 9 8 6 7 5 5 5 6
7 5 6 7 11 9 3 12 9 15 15 11 9 8 10 13 11 11 11 8 7 6 12 14 18 16 17 16 16 16 17 17 6 13 11 10 8 6 9 9 4 3 8 4
4 8 5 3 12 7 11 13 13 12 14 12 11 10 10 10 11 13 9 10 13 15 5 16 17 18 17 17 17 15 18 16 7 12 10 9 10 8 6 9 8 14 10 10
Wind_Direction
276 267 251 269 274 272 276 273 277 278 274 245 251 244 244 245 239 250 255 242 236 250 252 245 248 227 238 234 231 236 235 244 245 236 231 235 233 228 222 225 214 201 186 185
276 254 259 259 267 278 278 276 271 274 272 278 277 269 267 251 246 240 245 253 258 255 255 253 258 252 249 244 237 232 239 237 231 223 237 253 235 227 209 207 198 194 190 188
281 293 301 292 267 264 265 263 272 279 285 273 262 254 262 255 253 249 245 250 254 253 252 250 253 259 258 251 234 226 229 233 232 220 217 213 257 257 191 192 182 193 191 194
287 288 273 279 273 270 267 271 277 274 264 260 253 263 253 248 250 250 246 242 246 253 258 257 255 253 249 243 243 238 227 222 220 208 228 196 213 211 202 181 180 195 191 173
288 293 282 274 275 263 269 277 277 268 268 257 254 257 257 250 243 239 239 244 243 241 237 244 248 254 253 246 234 227 219 207 218 190 223 195 218 203 189 194 143 162 153 165
272 321 292 288 288 267 272 273 267 260 260 252 248 253 250 246 251 266 260 254 250 245 243 243 244 245 246 246 241 221 208 203 205 214 197 226 192 226 170 161 160 162 160 171
315 300 324 295 297 250 247 252 261 249 243 252 249 257 258 258 247 256 249 250 243 250 255 239 243 244 237 239 228 224 208 213 212 201 195 201 199 197 154 150 170 164 170 176
317 308 334 1 301 312 255 244 252 269 265 267 238 242 254 253 260 249 295 276 264 250 255 248 240 241 245 210 209 210 202 202 188 186 184 183 177 177 159 183 160 162 172 165
308 304 308 302 270 304 278 254 249 264 276 291 264 268 272 240 247 241 243 227 221 239 257 264 259 251 235 219 195 196 183 190 175 174 171 167 171 169 165 148 145 159 141 144
295 297 304 294 250 268 251 333 259 231 253 257 256 260 270 211 237 218 219 156 289 272 267 260 252 237 204 160 139 196 178 158 162 159 155 159 154 138 129 138 150 140 135 152
295 294 295 278 264 272 218 214 247 179 256 275 258 297 255 210 207 222 215 76 305 309 336 324 317 94 116 183 149 147 150 146 136 148 135 120 126 131 147 133 135 131 143 145
300 300 278 280 270 222 235 297 271 246 274 274 268 272 302 284 165 187 83 36 350 53 82 169 210 191 203 149 147 143 141 144 144 129 129 128 138 138 135 139 138 143 149 164
342 272 291 283 255 26 3 279 252 262 216 257 271 285 310 97 102 81 61 5 337 356 88 103 177 209 159 144 142 143 144 136 139 132 136 137 134 135 137 139 142 149 146 155
316 269 261 272 286 160 218 235 211 219 250 272 265 275 309 310 27 134 71 351 323 334 86 97 330 303 111 147 141 147 139 137 133 135 134 135 136 138 141 141 146 144 159 161
255 261 272 274 280 286 288 285 272 271 270 270 277 282 239 275 290 311 348 332 328 335 66 122 55 185 140 107 128 137 134 135 137 135 135 137 136 143 143 148 153 159 159 162
205 260 270 275 276 272 270 269 269 263 271 275 281 282 271 255 276 293 298 302 308 321 342 135 144 157 156 156 157 137 136 135 133 131 135 142 147 147 144 148 138 161 147 101
266 253 277 276 277 286 276 264 252 257 260 269 272 279 285 281 276 284 288 282 286 287 307 150 149 173 171 187 137 140 134 138 141 142 147 145 127 125 146 146 160 163 104 179
244 253 260 266 296 250 266 308 316 297 291 297 295 271 278 287 286 276 273 278 281 284 283 144 159 175 208 176 149 133 146 149 147 149 145 143 147 129 147 158 158 110 131 151
222 241 274 263 253 288 308 11 359 352 291 301 295 296 285 269 280 282 265 265 266 266 275 161 175 173 148 191 143 151 153 154 152 147 148 113 139 163 135 188 129 125 152 157
218 218 258 291 274 262 52 143 23 300 269 10 331 274 264 291 272 263 203 223 347 339 333 172 156 169 162 190 145 157 157 158 152 114 105 140 175 128 185 149 117 169 153 170
291 214 233 248 251 260 37 32 353 237 18 336 318 306 313 290 315 313 322 322 342 316 298 167 156 155 186 149 150 166 160 139 120 124 137 194 135 146 163 137 140 161 189 149
295 312 311 266 240 235 2 297 230 324 314 309 297 291 301 307 295 301 283 314 304 272 207 162 169 175 160 147 166 151 148 120 118 134 177 127 132 167 147 149 137 177 138 162
293 206 282 246 269 293 314 281 279 278 271 274 268 264 278 292 289 287 295 292 264 281 187 186 146 152 149 155 164 159 125 122 140 181 126 134 163 117 134 136 165 161 179 172
289 140 223 289 286 302 313 313 346 316 319 349 283 283 277 272 279 287 306 279 238 243 193 169 153 150 152 155 158 161 140 148 163 130 132 153 116 128 161 153 185 163 169 173
319 182 280 252 290 309 332 330 342 327 329 355 351 326 318 305 310 308 325 286 262 238 232 163 145 150 151 155 164 158 166 132 168 135 142 150 136 148 110 66 15 102 57 12
306 320 334 319 324 2 327 334 2 324 347 356 344 340 326 308 313 324 327 317 252 192 237 133 142 147 152 156 165 165 124 128 155 139 161 159 151 154 149 132 108 54 62 58